{"data":{"norad_id":69023,"epoch":"2026-09-20T04:12:15.958944Z","epoch_age_seconds":47362,"freshness":"FRESH","line1":"1 69023U 26100AV  26263.17518471  .00005200  00000+0  23451-3 0  9996","line2":"2 69023  97.3931 159.3134 0004316  47.2957 312.8641 15.21444162 21242","mean_motion":15.21444162,"eccentricity":0.0004316,"inclination_deg":97.3931,"raan_deg":159.3134,"arg_perigee_deg":47.2957,"mean_anomaly_deg":312.8641,"bstar":0.00023451,"rev_number":2124,"period_min":94.64691744632,"perigee_km":498.51447723645,"apogee_km":504.45296584329,"semimajor_km":6879.6207215399,"source":"CELESTRAK","updated_at":"2026-09-20T09:00:24.633052Z"}}